Location: Acts Church of Fort Worth
(32.6786°N, 97.2668°W)
Time: 09:46:23
(UTC+00:00)

OAO 1 Rocket - Pass Details

Date: 18 January 2026
Orbit: 737 x 748 km, 35.0° (Epoch: 10 February)

Event Time Altitude Azimuth Distance (km) Brightness Sun altitude
Exits shadow 11:26:06 71° 355° (N) 788 4.4 -25.9°
Maximum altitude 11:26:14 71° 6° (N) 786 4.4 -25.9°
Drops below altitude 10° 11:31:32 10° 91° (E) 2,252 8.0 -24.8°
Sets 11:33:59 0° 93° (E) 3,174 9.1 -24.3°
